• en France
  • Liste des pays
  • À 7 jours
  • Température de l'eau
  • Carte satellitaire
  • Carte météo
  • Widgets météo
  • user-avatar
    Se connecter

    Météo par heure à Beloreche

    Ce jour, 23 Septembre, Dimanche

    Heure Température Précipitation Vent Pression Humidité
    00:00 +17°C° 0 mm 4 m/s 747 mmHg 69%
    01:00 +17°C° 0 mm 4 m/s 747 mmHg 71%
    02:00 +17°C° 0 mm 4 m/s 747 mmHg 72%
    03:00 +15°C° 0 mm 4 m/s 746 mmHg 77%
    04:00 +15°C° 0 mm 4 m/s 745 mmHg 76%
    05:00 +15°C° 0 mm 5 m/s 745 mmHg 75%
    06:00 +15°C° 0 mm 5 m/s 745 mmHg 74%
    07:00 +16°C° 0 mm 6 m/s 744 mmHg 69%
    08:00 +17°C° 0 mm 7 m/s 744 mmHg 64%
    09:00 +20°C° 0 mm 8 m/s 743 mmHg 59%
    10:00 +21°C° 0 mm 8 m/s 743 mmHg 56%
    11:00 +22°C° 0 mm 8 m/s 743 mmHg 53%
    12:00 +23°C° 0 mm 8 m/s 743 mmHg 49%
    13:00 +22°C° 0.3 mm 7 m/s 743 mmHg 55%
    14:00 +20°C° 0.3 mm 7 m/s 743 mmHg 60%
    15:00 +17°C° 0 mm 6 m/s 743 mmHg 69%
    16:00 +15°C° 0.5 mm 5 m/s 743 mmHg 74%
    17:00 +13°C° 0.5 mm 5 m/s 743 mmHg 79%
    18:00 +10°C° 0.5 mm 5 m/s 743 mmHg 84%
    19:00 +10°C° 0.8 mm 4 m/s 743 mmHg 85%
    20:00 +10°C° 0.8 mm 4 m/s 743 mmHg 86%
    21:00 +10°C° 0.8 mm 4 m/s 743 mmHg 87%
    22:00 +10°C° 0.5 mm 4 m/s 744 mmHg 88%
    23:00 +10°C° 0.5 mm 3 m/s 744 mmHg 88%

    Demain, 24 Septembre, Lundi

    Heure Température Précipitation Vent Pression Humidité
    00:00 +10°C° 0.5 mm 3 m/s 744 mmHg 88%
    01:00 +9°C° 0 mm 3 m/s 744 mmHg 89%
    02:00 +9°C° 0 mm 3 m/s 744 mmHg 90%
    03:00 +8°C° 0 mm 3 m/s 745 mmHg 91%
    04:00 +8°C° 0 mm 3 m/s 745 mmHg 92%
    05:00 +7°C° 0 mm 3 m/s 745 mmHg 93%
    06:00 +7°C° 0 mm 2 m/s 745 mmHg 94%
    07:00 +8°C° 0 mm 3 m/s 745 mmHg 89%
    08:00 +10°C° 0 mm 3 m/s 745 mmHg 84%
    09:00 +11°C° 0 mm 3 m/s 746 mmHg 79%
    10:00 +12°C° 0 mm 3 m/s 746 mmHg 71%
    11:00 +14°C° 0 mm 4 m/s 745 mmHg 64%
    12:00 +15°C° 0 mm 4 m/s 745 mmHg 56%
    13:00 +15°C° 0 mm 4 m/s 745 mmHg 55%
    14:00 +15°C° 0 mm 5 m/s 745 mmHg 54%
    15:00 +15°C° 0 mm 5 m/s 744 mmHg 53%
    16:00 +14°C° 0.3 mm 5 m/s 744 mmHg 59%
    17:00 +13°C° 0.3 mm 4 m/s 743 mmHg 65%
    18:00 +12°C° 0.3 mm 3 m/s 743 mmHg 71%
    19:00 +12°C° 0.9 mm 4 m/s 742 mmHg 73%
    20:00 +11°C° 0.9 mm 6 m/s 742 mmHg 76%
    21:00 +10°C° 0.9 mm 7 m/s 741 mmHg 79%
    22:00 +10°C° 0.6 mm 7 m/s 740 mmHg 79%
    23:00 +10°C° 0.6 mm 8 m/s 739 mmHg 78%

    Après-demain, 25 Septembre, Mardi

    Heure Température Précipitation Vent Pression Humidité
    00:00 +10°C° 0.6 mm 8 m/s 738 mmHg 78%
    01:00 +10°C° 0.4 mm 8 m/s 738 mmHg 79%
    02:00 +10°C° 0.4 mm 8 m/s 737 mmHg 80%
    03:00 +10°C° 0.4 mm 8 m/s 737 mmHg 81%
    04:00 +10°C° 0.3 mm 7 m/s 736 mmHg 82%
    05:00 +9°C° 0.3 mm 7 m/s 736 mmHg 83%
    06:00 +9°C° 0.3 mm 6 m/s 736 mmHg 85%
    07:00 +9°C° 0 mm 6 m/s 736 mmHg 82%
    08:00 +9°C° 0 mm 7 m/s 736 mmHg 80%
    09:00 +9°C° 0 mm 7 m/s 736 mmHg 77%
    10:00 +9°C° 0 mm 7 m/s 737 mmHg 75%
    11:00 +9°C° 0 mm 7 m/s 737 mmHg 73%
    12:00 +9°C° 0 mm 8 m/s 737 mmHg 71%
    13:00 +9°C° 0 mm 8 m/s 738 mmHg 71%
    14:00 +9°C° 0 mm 8 m/s 738 mmHg 71%
    15:00 +9°C° 0 mm 8 m/s 738 mmHg 72%
    16:00 +9°C° 0 mm 7 m/s 739 mmHg 72%
    17:00 +8°C° 0 mm 7 m/s 739 mmHg 73%
    18:00 +8°C° 0 mm 7 m/s 740 mmHg 74%
    19:00 +8°C° 0.1 mm 7 m/s 741 mmHg 75%
    20:00 +6°C° 0.1 mm 7 m/s 741 mmHg 77%
    21:00 +6°C° 0.1 mm 7 m/s 742 mmHg 78%
    22:00 +6°C° 0.1 mm 7 m/s 742 mmHg 78%
    23:00 +6°C° 0.1 mm 7 m/s 743 mmHg 78%

    26 Septembre, Mercredi

    Heure Température Précipitation Vent Pression Humidité
    00:00 +5°C° 0.1 mm 6 m/s 744 mmHg 78%
    01:00 +5°C° 0 mm 6 m/s 745 mmHg 79%
    02:00 +5°C° 0 mm 6 m/s 745 mmHg 80%
    03:00 +5°C° 0 mm 5 m/s 746 mmHg 81%
    04:00 +5°C° 0 mm 5 m/s 747 mmHg 82%
    05:00 +3°C° 0 mm 5 m/s 747 mmHg 83%
    06:00 +3°C° 0 mm 5 m/s 748 mmHg 84%
    07:00 +3°C° 0 mm 5 m/s 749 mmHg 79%
    08:00 +5°C° 0 mm 5 m/s 750 mmHg 75%
    09:00 +5°C° 0 mm 5 m/s 750 mmHg 70%
    10:00 +6°C° 0 mm 5 m/s 751 mmHg 65%
    11:00 +7°C° 0 mm 5 m/s 751 mmHg 60%
    12:00 +8°C° 0 mm 5 m/s 752 mmHg 55%
    13:00 +8°C° 0 mm 5 m/s 752 mmHg 53%
    14:00 +8°C° 0 mm 4 m/s 752 mmHg 50%
    15:00 +10°C° 0 mm 4 m/s 752 mmHg 48%
    16:00 +8°C° 0 mm 4 m/s 752 mmHg 51%
    17:00 +8°C° 0 mm 3 m/s 752 mmHg 54%
    18:00 +7°C° 0 mm 3 m/s 753 mmHg 58%
    19:00 +5°C° 0 mm 3 m/s 753 mmHg 60%
    20:00 +4°C° 0 mm 3 m/s 753 mmHg 62%
    21:00 +4°C° 0 mm 3 m/s 753 mmHg 64%
    22:00 +3°C° 0 mm 3 m/s 752 mmHg 65%
    23:00 +3°C° 0 mm 3 m/s 752 mmHg 65%

    27 Septembre, Jeudi

    Heure Température Précipitation Vent Pression Humidité
    00:00 +3°C° 0 mm 4 m/s 752 mmHg 66%
    01:00 +3°C° 0 mm 4 m/s 751 mmHg 66%
    02:00 +2°C° 0 mm 5 m/s 751 mmHg 65%
    03:00 +2°C° 0 mm 5 m/s 750 mmHg 65%
    04:00 +3°C° 0 mm 5 m/s 750 mmHg 65%
    05:00 +3°C° 0 mm 6 m/s 749 mmHg 66%
    06:00 +3°C° 0 mm 6 m/s 748 mmHg 66%
    07:00 +4°C° 0.3 mm 7 m/s 748 mmHg 67%
    08:00 +4°C° 0.3 mm 8 m/s 747 mmHg 68%
    09:00 +4°C° 0.3 mm 8 m/s 746 mmHg 69%
    10:00 +3°C° 1 mm 9 m/s 745 mmHg 72%
    11:00 +3°C° 1 mm 9 m/s 745 mmHg 75%
    12:00 +3°C° 1 mm 9 m/s 744 mmHg 78%
    13:00 +3°C° 1 mm 9 m/s 744 mmHg 80%
    14:00 +5°C° 1 mm 9 m/s 744 mmHg 82%
    15:00 +5°C° 1 mm 8 m/s 744 mmHg 84%
    16:00 +5°C° 0.2 mm 7 m/s 744 mmHg 85%
    17:00 +5°C° 0.2 mm 7 m/s 744 mmHg 85%
    18:00 +7°C° 0.2 mm 6 m/s 744 mmHg 86%
    19:00 +7°C° 0 mm 6 m/s 744 mmHg 87%
    20:00 +7°C° 0 mm 5 m/s 744 mmHg 88%
    21:00 +7°C° 0 mm 5 m/s 744 mmHg 89%
    22:00 +7°C° 0 mm 5 m/s 744 mmHg 90%
    23:00 +7°C° 0 mm 5 m/s 744 mmHg 91%

    28 Septembre, Vendredi

    Heure Température Précipitation Vent Pression Humidité
    00:00 +7°C° 0 mm 5 m/s 745 mmHg 92%
    01:00 +7°C° 0 mm 4 m/s 745 mmHg 93%
    02:00 +7°C° 0 mm 4 m/s 745 mmHg 94%
    03:00 +6°C° 0 mm 4 m/s 745 mmHg 95%
    04:00 +7°C° 0 mm 3 m/s 745 mmHg 95%
    05:00 +7°C° 0 mm 3 m/s 745 mmHg 96%
    06:00 +7°C° 0 mm 3 m/s 745 mmHg 96%
    07:00 +7°C° 0 mm 4 m/s 745 mmHg 93%
    08:00 +8°C° 0 mm 5 m/s 745 mmHg 89%
    09:00 +9°C° 0 mm 6 m/s 744 mmHg 85%
    10:00 +10°C° 0 mm 7 m/s 744 mmHg 83%
    11:00 +11°C° 0 mm 8 m/s 743 mmHg 81%
    12:00 +11°C° 0 mm 8 m/s 742 mmHg 79%
    13:00 +12°C° 0 mm 8 m/s 742 mmHg 78%
    14:00 +13°C° 0 mm 9 m/s 741 mmHg 77%
    15:00 +13°C° 0 mm 9 m/s 741 mmHg 76%
    16:00 +13°C° 0.3 mm 9 m/s 741 mmHg 77%
    17:00 +13°C° 0.3 mm 9 m/s 740 mmHg 78%
    18:00 +13°C° 0.3 mm 9 m/s 740 mmHg 79%
    19:00 +11°C° 0.3 mm 8 m/s 741 mmHg 78%
    20:00 +9°C° 0.3 mm 7 m/s 743 mmHg 76%
    21:00 +7°C° 0.3 mm 6 m/s 744 mmHg 74%
    22:00 +6°C° 0 mm 5 m/s 744 mmHg 77%
    23:00 +5°C° 0 mm 4 m/s 745 mmHg 80%
    Voir plus